Meteo Giornale » Osservazioni meteo Italia » Ronchi Dei Legionari

ore: 21:50 - Osservazioni Meteo Ronchi Dei Legionari
Lat. 45° 49' N Lon. 13° 29' E Alt. 12 metri s.l.m.

foschia Europe/Rome

7 °C

Foschia

Temp. 24 Ore

-1 °C

9 °C

Nord/Nord-Est

7.4 Km/h

Dew point 5 °C

Umidità 87 %

Visibilità  3 Km

Il sole sorge alle ore 07:00

Il sole tramonta alle ore 17:39

Data e Ora Cielo e Fenomeni T °C DP °C Um. % Pres. hPa Vis. km Vento km/h
Oggi h: 21:50 foschia Foschia 7 5 87 1023 3 N/NE 7.4
Oggi h: 21:20 foschia Foschia 7 5 87 1024 3 N 3.7
Oggi h: 20:50 foschia Foschia 8 6 87 1023 3 N/NE 9.3
Oggi h: 20:20 foschia Foschia 8 5 81 1023 3 N 5.5
Oggi h: 19:50 foschia Foschia 8 5 81 1023 3 N 5.5
Oggi h: 19:20 foschia Foschia 8 6 87 1023 3 N 5.5
Oggi h: 18:50 foschia Foschia 8 6 87 1023 3 N 1.8
Oggi h: 18:20 foschia Foschia 8 5 81 1022 3 N 1.8
Oggi h: 17:50 foschia Foschia 8 5 81 1022 3 N 5.5
Oggi h: 17:20 foschia Foschia 9 6 81 1022 3 N 1.8
Oggi h: 16:50 foschia Foschia 9 6 81 1022 3 N 1.8
Oggi h: 16:20 foschia Foschia 9 6 81 1022 3 N 1.8
Oggi h: 15:50 foschia Foschia 9 6 81 1022 3 N 1.8
Oggi h: 15:20 foschia Foschia 9 6 81 1022 3 N 1.8
Oggi h: 14:50 foschia Foschia 9 6 81 1022 3 N 3.7
Oggi h: 14:20 foschia Foschia 9 6 81 1022 5 N 5.5
Oggi h: 13:50 foschia Foschia 9 6 81 1022 4 N 3.7
Oggi h: 13:20 foschia Foschia 9 5 75 1023 4 N 3.7
Oggi h: 12:50 foschia Foschia 8 6 87 1023 4 SE 7.4
Oggi h: 12:20 foschia Foschia 8 6 87 1023 3 N 5.5
Oggi h: 11:50 foschia Foschia 8 7 93 1024 2 S/SE 7.4
Oggi h: 11:20 foschia Foschia 8 6 87 1024 2 S/SE 9.3
Oggi h: 10:50 foschia Foschia 6 5 93 1023 3 N 3.7
Oggi h: 10:20 foschia Foschia 6 4 86 1023 3 N 5.5
Oggi h: 09:50 foschia Foschia 5 4 93 1023 3 N 5.5
Oggi h: 09:20 foschia Foschia 3 2 93 1023 2 E 7.4
Oggi h: 08:50 foschia Foschia 2 1 93 1023 2 E 9.3
Oggi h: 08:20 foschia Foschia 0 -0 100 1023 3 N 3.7
Oggi h: 07:50 foschia Foschia -0 -0 100 1023 2 N 3.7
Oggi h: 07:20 nebbia Banco di Nebbia -1 -1 100 1022 1 N 3.7
Oggi h: 06:20 nebbia Banco di Nebbia -1 -2 92 1022 0.3 N 1.8
Oggi h: 05:50 nebbia Nebbia Congelantesi -1 -1 100 1022 0.5 N 1.8
Oggi h: 05:20 nebbia Nebbia Congelantesi -0 -1 92 1022 0.1 N 1.8
Oggi h: 04:50 nebbia Nebbia Congelantesi -0 -1 92 1022 0.4 N 1.8
Oggi h: 04:20 nebbia Nebbia Congelantesi -0 -1 92 1022 0.8 N 5.5
Oggi h: 03:50 foschia Foschia 0 -0 100 1022 2 N 3.7
Oggi h: 03:20 foschia Foschia 0 -0 100 1022 3 N 3.7
Oggi h: 02:50 foschia Foschia 1 0 93 1022 3 N 5.5
Oggi h: 02:20 nebbia Banco di Nebbia 0 0 100 1022 1 N 3.7
Oggi h: 01:50 foschia Foschia 0 -0 100 1022 2 N 3.7
Oggi h: 01:20 foschia Foschia 0 -0 100 1022 3 N 5.5
Oggi h: 00:50 foschia Foschia 1 0 93 1023 1 N 3.7
Oggi h: 00:20 foschia Foschia 2 1 93 1022 5 N 3.7
Ieri h: 23:50 foschia Foschia 1 1 100 1022 5 N 1.8
Ieri h: 23:20 sereno Sereno 2 1 93 1022 6 N 3.7
Ieri h: 22:50 foschia Foschia 2 1 93 1023 4 N 3.7
Ieri h: 22:20 sereno Sereno 3 1 86 1023 6 N 3.7
Ieri h: 21:50 foschia Foschia 2 1 93 1023 5 N 5.5